Location: Kerguer�zec
(48.4509°N, 4.7600°W)
Time: 12:20:42
(UTC+00:00)

Cosmos 2344 - Pass Details

Date: 09 April 2020
Orbit: 1251 x 2991 km, 63.3° (Epoch: 27 May)

Event Time Altitude Azimuth Distance (km) Brightness Sun altitude
Rises 22:22:09 0° 317° (NW) 4,559 7.7 -27.8°
Reaches altitude 10° 22:24:46 10° 318° (NW) 3,713 7.0 -28.1°
Maximum altitude 22:34:09 82° 48° (NE) 1,912 4.3 -28.9°
Enters shadow 22:38:43 46° 130° (SE) 2,640 4.7 -29.3°
